Stations météo

Publicité
Kinlochewe, Grande-Bretagne (99092): Température de l'air & dewpoint: 13.12.2018 01:00:00 - 19.12.2018 01:00:00 (GMT)Kinlochewe, Grande-Bretagne (99092): Température de l'air -20cm: 13.12.2018 01:00:00 - 19.12.2018 01:00:00 (GMT)Kinlochewe, Grande-Bretagne (99092): Quantités de précipitations: 13.12.2018 01:00:00 - 19.12.2018 01:00:00 (GMT)
Date & Time tt [°C] td [°C] tt -20cm [°C] rr [mm]
19.12.2018 01:00:00 - - - -
19.12.2018 00:00:00 4,8 3,7 - 0,0
18.12.2018 23:00:00 4,8 3,6 - 0,2
18.12.2018 22:00:00 6,3 4,3 - 0,0
18.12.2018 21:00:00 5,7 4,4 - 0,0
18.12.2018 20:00:00 5,3 4,4 - 0,0
18.12.2018 19:00:00 5,7 4,7 - 0,2
18.12.2018 18:00:00 7,0 5,6 - 0,0
18.12.2018 17:00:00 6,9 6,0 - 0,0
18.12.2018 16:00:00 7,5 6,1 - 0,2
18.12.2018 15:00:00 7,6 7,0 - 0,8
18.12.2018 14:00:00 7,9 7,3 - 0,6
18.12.2018 13:00:00 8,6 7,1 - 0,0
18.12.2018 12:00:00 8,4 7,1 - 0,4
18.12.2018 11:00:00 8,8 6,7 - 3,6
18.12.2018 10:00:00 10,9 7,2 - 0,4
18.12.2018 09:00:00 12,3 6,4 5,5 0,0
18.12.2018 08:00:00 12,6 6,0 - 0,0
18.12.2018 07:00:00 12,5 6,4 - 0,0
18.12.2018 06:00:00 12,3 7,2 - 0,0
18.12.2018 05:00:00 11,8 7,5 - 0,0
18.12.2018 04:00:00 12,2 7,6 - 0,0
18.12.2018 03:00:00 12,2 7,7 - 0,2
18.12.2018 02:00:00 11,1 7,8 - 0,2
18.12.2018 01:00:00 10,2 7,5 - 0,4
18.12.2018 00:00:00 9,5 7,3 - 0,8
17.12.2018 23:00:00 9,4 6,8 - 0,4
17.12.2018 22:00:00 10,0 5,9 - 0,0
17.12.2018 21:00:00 9,8 5,3 - 0,0
17.12.2018 20:00:00 9,1 4,7 - 0,0
17.12.2018 19:00:00 8,6 4,2 - 0,0
17.12.2018 18:00:00 8,3 3,9 - 0,0
17.12.2018 17:00:00 7,7 3,2 - 0,0
17.12.2018 16:00:00 6,8 2,5 - 0,0
17.12.2018 15:00:00 6,9 2,5 - 0,0
17.12.2018 14:00:00 6,4 2,8 - 0,0
17.12.2018 13:00:00 5,6 3,2 - 0,0
17.12.2018 12:00:00 5,5 2,7 - 0,2
17.12.2018 11:00:00 5,1 3,2 - 0,0
17.12.2018 10:00:00 4,6 2,7 - 0,0
17.12.2018 09:00:00 4,5 3,6 5,2 0,0
17.12.2018 08:00:00 4,6 3,9 - 0,0
17.12.2018 07:00:00 5,2 4,2 - 0,0
17.12.2018 06:00:00 5,0 4,6 - 0,2
17.12.2018 05:00:00 4,2 4,1 - 0,4
17.12.2018 04:00:00 3,9 3,6 - 0,6
17.12.2018 03:00:00 3,3 2,9 - 0,2
17.12.2018 02:00:00 3,4 2,3 - 0,0
17.12.2018 01:00:00 4,1 2,4 - 0,2
17.12.2018 00:00:00 3,2 2,2 - 0,0
16.12.2018 23:00:00 2,3 1,7 - 0,0
16.12.2018 22:00:00 1,9 1,5 - 0,0
16.12.2018 21:00:00 2,0 1,3 - 0,0
16.12.2018 20:00:00 4,1 2,1 - 0,0
16.12.2018 19:00:00 3,6 2,7 - 0,0
16.12.2018 18:00:00 3,5 2,5 - 0,0
16.12.2018 17:00:00 4,0 3,2 - 0,0
16.12.2018 16:00:00 4,2 2,6 - 0,8
16.12.2018 15:00:00 6,0 3,5 - 0,0
16.12.2018 14:00:00 5,9 4,6 - 0,2
16.12.2018 13:00:00 5,6 4,2 - 0,6
16.12.2018 12:00:00 6,7 4,1 - 0,2
16.12.2018 11:00:00 6,0 5,4 - 0,2
16.12.2018 10:00:00 5,1 3,9 - 0,6
16.12.2018 09:00:00 4,9 3,3 5,0 0,4
16.12.2018 08:00:00 4,7 2,6 - 1,8
16.12.2018 07:00:00 3,8 2,4 - 3,0
16.12.2018 06:00:00 3,6 1,8 - 0,4
16.12.2018 05:00:00 4,6 0,6 - 0,0
16.12.2018 04:00:00 4,9 0,8 - 0,0
16.12.2018 03:00:00 4,1 0,8 - 0,0
16.12.2018 02:00:00 3,8 0,8 - 0,0
16.12.2018 01:00:00 3,7 1,0 - 0,2
16.12.2018 00:00:00 3,3 1,3 - 0,4
15.12.2018 23:00:00 3,1 1,3 - 1,6
15.12.2018 22:00:00 3,2 1,5 - 1,4
15.12.2018 21:00:00 3,8 1,5 - 1,2
15.12.2018 20:00:00 4,1 1,6 - 1,0
15.12.2018 19:00:00 4,6 1,8 - 1,8
15.12.2018 18:00:00 4,1 1,7 - 0,6
15.12.2018 17:00:00 4,0 1,1 - 0,8
15.12.2018 16:00:00 3,5 0,7 - 0,4
15.12.2018 15:00:00 4,7 -0,4 - 0,0
15.12.2018 14:00:00 5,9 -1,3 - 0,0
15.12.2018 13:00:00 5,3 -3,1 - 0,0
15.12.2018 12:00:00 4,6 -2,7 - 0,0
15.12.2018 11:00:00 4,4 -1,4 - 0,0
15.12.2018 10:00:00 5,2 0,7 - 0,4
15.12.2018 09:00:00 5,6 1,7 5,2 0,2
15.12.2018 08:00:00 6,6 -0,6 - 0,0
15.12.2018 07:00:00 6,2 -0,9 - 0,0
15.12.2018 06:00:00 5,0 -0,8 - 0,0
15.12.2018 05:00:00 6,4 -1,4 - 0,0
15.12.2018 04:00:00 5,7 -2,2 - 0,0
15.12.2018 03:00:00 6,0 -2,1 - 0,0
15.12.2018 02:00:00 5,7 -2,1 - 0,0
15.12.2018 01:00:00 5,3 -2,1 - 0,0
15.12.2018 00:00:00 4,7 -2,8 - 0,0
14.12.2018 23:00:00 5,0 -3,0 - 0,0
14.12.2018 22:00:00 4,8 -4,1 - 0,0
14.12.2018 21:00:00 5,1 -4,4 - 0,0
14.12.2018 20:00:00 5,1 -4,7 - 0,0
14.12.2018 19:00:00 4,6 -5,0 - 0,0
14.12.2018 18:00:00 4,5 -5,4 - 0,0
14.12.2018 17:00:00 4,3 -6,3 - 0,0
14.12.2018 16:00:00 3,9 -5,6 - 0,0
14.12.2018 15:00:00 4,6 -5,8 - 0,0
14.12.2018 14:00:00 7,2 -6,9 - 0,0
14.12.2018 13:00:00 6,0 -5,6 - 0,0
14.12.2018 12:00:00 6,6 -7,4 - 0,0
14.12.2018 11:00:00 5,9 -5,3 - 0,0
14.12.2018 10:00:00 4,3 -5,4 - 0,0
14.12.2018 09:00:00 4,5 -5,7 5,2 0,0
14.12.2018 08:00:00 4,4 -4,9 - 0,0
14.12.2018 07:00:00 4,8 -5,3 - 0,0
14.12.2018 06:00:00 5,0 -5,2 - 0,0
14.12.2018 05:00:00 4,4 -4,4 - 0,0
14.12.2018 04:00:00 4,7 -4,6 - 0,0
14.12.2018 03:00:00 4,9 -4,7 - 0,0
14.12.2018 02:00:00 5,1 -5,2 - 0,0
14.12.2018 01:00:00 4,6 -4,5 - 0,0
14.12.2018 00:00:00 4,9 -4,2 - 0,0
13.12.2018 23:00:00 5,1 -3,7 - 0,0
13.12.2018 22:00:00 4,7 -3,5 - 0,0
13.12.2018 21:00:00 3,3 -4,0 - 0,0
13.12.2018 20:00:00 6,2 -4,7 - 0,0
13.12.2018 19:00:00 5,7 -4,3 - 0,0
13.12.2018 18:00:00 5,4 -4,0 - 0,0
13.12.2018 17:00:00 5,4 -3,8 - 0,0
13.12.2018 16:00:00 5,1 -3,5 - 0,0
13.12.2018 15:00:00 5,0 -3,1 - 0,0
13.12.2018 14:00:00 5,4 -3,2 - 0,0
13.12.2018 13:00:00 5,4 -3,0 - 0,0
13.12.2018 12:00:00 5,7 -3,5 - 0,0
13.12.2018 11:00:00 5,2 -2,9 - 0,0
13.12.2018 10:00:00 4,9 -3,2 - 0,0
13.12.2018 09:00:00 4,9 -3,7 5,7 0,0
13.12.2018 08:00:00 4,7 -4,0 - 0,0
13.12.2018 07:00:00 4,5 -4,3 - 0,0
13.12.2018 06:00:00 4,6 -4,1 - 0,0
13.12.2018 05:00:00 5,0 -4,3 - 0,0
13.12.2018 04:00:00 4,7 -3,6 - 0,0
13.12.2018 03:00:00 4,9 -3,6 - 0,0
13.12.2018 02:00:00 5,0 -1,9 - 0,0
13.12.2018 01:00:00 5,9 -0,5 - 0,0

tt = Température de l'air
td = dewpoint
tt -20cm = Température de l'air -20cm
rr = Quantités de précipitations

stations d'obs. à proximité